Location: Allaines
(49.9632°N, 2.9458°E)
Time: 09:35:48
(UTC+00:00)

SL-24 R/B - RUBIN 2 - Pass Details

Date: 09 April 2020
Orbit: 569 x 1026 km, 64.6° (Epoch: 06 June)

Event Time Altitude Azimuth Distance (km) Brightness Sun altitude
Rises 19:21:55 0° 207° (SSW) 3,263 7.3 -8.3°
Reaches altitude 10° 19:24:13 10° 205° (SSW) 2,405 6.6 -8.6°
Maximum altitude 19:29:47 66° 124° (SE) 973 4.3 -9.4°
Drops below altitude 10° 19:36:04 10° 44° (NE) 2,711 6.7 -10.3°
Sets 19:38:47 0° 42° (NE) 3,708 7.4 -10.7°
